Regional Weather Roundup
Issued by NWS

Home | Current Version | Previous Version | Text Only | Print | Product List | Glossary Off
Versions: 1 2 3 4 5 6 7 8 9 10 11 12 13 14 15 16 17 18 19 20 21 22 23 24 25 26 27 28 29 30 31 32 33 34 35 36 37 38 39 40 41 42 43 44 45 46 47 48 49 50

501
ASUS44 KLIX 251001
RWRLA
LOUISIANA WEATHER ROUNDUP
NATIONAL WEATHER SERVICE NEW ORLEANS LA
400 AM CST SUN JAN 25 2015

NOTE: "FAIR" INDICATES FEW OR NO CLOUDS BELOW 12,000 FEET WITH NO
      SIGNIFICANT WEATHER AND/OR OBSTRUCTIONS TO VISIBILITY.
      SKY/WX - SKY CONDITION AND SIGNIFICANT WEATHER.
      TMP - AIR TEMPERATURE.    DP   - DEWPOINT TEMPERATURE.
      RH  - RELATIVE HUMIDITY.  PRES - PRESSURE.
      HX  - HEAT INDEX.         WCI  - WIND CHILL INDEX.

*  THESE STATIONS ARE NOT NWS OR FAA STATIONS AND ARE NOT UNDER
   NWS QUALITY CONTROL.

LAZ040-048-061>063-065-066-069-251100-
SOUTHEAST LOUISIANA

CITY           SKY/WX    TMP DP  RH WIND       PRES   REMARKS
N.O. AUDUBON     N/A     41  41 100 MISG        N/A
N.O. INTL ARPT PTCLDY    44  40  85 SW7       30.06F
N.O. LAKEFRONT CLEAR     46  41  82 SW6       30.06F
N.O. DOWNTOWN* FAIR      46  39  76 S5        30.07S
SLIDELL        CLEAR     39  36  89 CALM      30.05F
BATON ROUGE    CLEAR     42  39  89 SW7       30.04F
BOOTHVILLE     CLEAR     46  44  93 W5        30.09F
BELLE CHASSE   CLEAR     37  35  92 S5        30.07S WCI  33
BOGALUSA*        N/A     35  32  90 CALM      30.07R
GALLIANO*      NOT AVBL
NEW ROADS*     NOT AVBL
GONZALES*      NOT AVBL
HAMMOND*       NOT AVBL
HOUMA*         SNOW      37  37 100 CALM      30.07F VSB<1/4
PORT FOURCHON* CLOUDY    52  46  82 W6        30.11F

$$

LAZ041-044-053-054-251100-
SOUTHWEST LOUISIANA

CITY           SKY/WX    TMP DP  RH WIND       PRES   REMARKS
LAKE CHARLES   CLEAR     43  41  93 SW3       30.04F
LAFAYETTE      CLEAR     42  42 100 SW6       30.04F
PATTERSON      CLEAR     39  37  93 CALM      30.06F VSB 1
SALT POINT       N/A     48  46  93 SW3       30.05F
NEW IBERIA     FOG       42  40  92 CALM      30.06S VSB 1/2
CHENAULT AIRPK NOT AVBL

$$

LAZ027-028-251100-
CENTRAL LOUISIANA

CITY           SKY/WX    TMP DP  RH WIND       PRES   REMARKS
FORT POLK      CLEAR     40  38  93 VRB2      30.01F
ALEXANDRIA INT CLEAR     41  37  86 SW5       30.00S
ALEXANDRIA     CLEAR     33  31  92 CALM      30.01S

$$

LAZ001-002-251100-
NORTHWEST LOUISIANA

CITY           SKY/WX    TMP DP  RH WIND       PRES   REMARKS
SHREVEPORT     CLEAR     37  32  82 S3        29.94F
BARKSDALE AFB  CLEAR     37  34  88 S3        29.96F
DTN SHREVEPORT CLEAR     42  33  70 S5        29.95F

$$

LAZ014-016-251100-
NORTHEAST LOUISIANA

CITY           SKY/WX    TMP DP  RH WIND       PRES   REMARKS
MONROE         CLEAR     37  35  92 SW6       29.97F WCI  32
TALLULAH       CLEAR     42  36  79 SW5       29.98F

$$




USA.gov is the U.S. government's official web portal to all federal, state and local government web resources and services.